Find DODGE

NORAD ID: 2867 Int'l Des: 1967-066 Owner: NAVAIR Country: US operational
MEOCIRCULAR

当前视图

正在加载3D地球...

关于 DODGE

正在加载描述...

即将过境

Passes for default location (London). Set your location on the main map for personalized predictions.

高度历史

Loading altitude history...

两行轨道根数

1 2867U 67066F 26150.14957748 -.00000051 00000-0 00000+0 0 9993
2 2867 2.4541 98.2601 0052778 193.1331 24.3080 1.09167512133182
Epoch: May 30, 2026 • Age: 9 hours

当前状态

高度 33667.6 km
速度 3.15 km/s
星下点 -0.01°S, 25.88°E
类型 other

Most Searched